Regional Weather Roundup
Issued by NWS

Home | Current Version | Previous Version | Text Only | Print | Product List | Glossary On
Versions: 1 2 3 4 5 6 7 8 9 10 11 12 13 14 15 16 17 18 19 20 21 22 23 24 25 26 27 28 29 30 31 32 33 34 35 36 37 38 39 40 41 42 43 44 45 46 47 48 49 50
000
ASUS44 KFWD 231815
RWRTX
NORTH TEXAS HOURLY WEATHER ROUNDUP
NATIONAL WEATHER SERVICE FORT WORTH TX
100 PM CDT FRI JUN 23 2017

NOTE: "FAIR" INDICATES FEW OR NO CLOUDS BELOW 12,000 FEET WITH NO
SIGNIFICANT WEATHER AND/OR OBSTRUCTIONS TO VISIBILITY.

TXZ118-119-231900-
DALLAS/FORT WORTH METROPLEX

CITY           SKY/WX    TMP DP  RH WIND       PRES   REMARKS
DFW AIRPORT    MOSUNNY   93  76  57 SE7       29.80R HX 105
6HR MIN TEMP:  78; 6HR MAX TEMP:  93;

DALLAS LOVE    MOSUNNY   92  75  57 S10       29.80R HX 103
6HR MIN TEMP:  78; 6HR MAX TEMP:  93;

FTW MEACHAM    SUNNY     95  77  55 CALM      29.80R HX 109
6HR MIN TEMP:  77; 6HR MAX TEMP:  95;

DAL-EXECUTIVE  SUNNY     92  76  59 SE9       29.81R HX 104
6HR MIN TEMP:  77; 6HR MAX TEMP:  92;

FTW-ALLIANCE   MOSUNNY   95  76  53 SE8       29.80R HX 108
6HR MIN TEMP:  76; 6HR MAX TEMP:  96;

FTW-NAS-JRB    MOSUNNY   94  75  54 VRB3      29.80R HX 105
6HR MIN TEMP:  78; 6HR MAX TEMP:  94;

FTW-SPINKS     SUNNY     93  75  55 S6        29.82S HX 104
ARLINGTON      SUNNY     92  76  59 SE8       29.81R HX 104
6HR MIN TEMP:  77; 6HR MAX TEMP:  92;

GRAND PRAIRIE  SUNNY     91  73  55 SE8       29.82R HX 100
ADDISON        SUNNY     91  75  59 S5        29.81R HX 102
MESQUITE       SUNNY     91  73  55 S8        29.82S HX 100
LANCASTER      SUNNY     91  74  58 S7G17     29.82S HX 100
6HR MIN TEMP:  72; 6HR MAX TEMP:  91;

$$

TXZ091>094-102>105-117-120-121-131>134-231900-
NORTH CENTRAL TEXAS

CITY           SKY/WX    TMP DP  RH WIND       PRES   REMARKS
SHRMAN/DENISON SUNNY     96  70  42 NE6       29.82R HX 102
6HR MIN TEMP:  74; 6HR MAX TEMP:  96;

GAINESVILLE    SUNNY     92  73  52 SE3       29.84S HX 101
6HR MIN TEMP:  72; 6HR MAX TEMP:  92;

BOWIE          SUNNY     95  67  40 CALM      29.84R HX  99
6HR MIN TEMP:  72; 6HR MAX TEMP:  95;

BRIDGEPORT     SUNNY     95  70  44 E5        29.83R HX 101
6HR MIN TEMP:  69; 6HR MAX TEMP:  95;

DECATUR        SUNNY     94  71  47 CALM      29.84R HX 101
6HR MIN TEMP:  76; 6HR MAX TEMP:  94;

DENTON         SUNNY     92  77  61 E6        29.81R HX 105
6HR MIN TEMP:  75; 6HR MAX TEMP:  92;

MCKINNEY       SUNNY     88  79  74 SE12      29.82R HX 103
6HR MIN TEMP:  74; 6HR MAX TEMP:  88;

BONHAM         SUNNY     90  75  62 S6        29.82R HX 100
GREENVILLE     SUNNY     91  75  59 S10G16    29.82F HX 102
ROCKWALL       SUNNY     89  77  65 S9G22     29.82S HX 101
6HR MIN TEMP:  76; 6HR MAX TEMP:  90;

TERRELL        MOSUNNY   90  75  61 S10       29.82R HX 100
6HR MIN TEMP:  76; 6HR MAX TEMP:  90;

WAXAHACHIE     SUNNY     91  75  57 SE7       29.82S HX 102
6HR MIN TEMP:  74; 6HR MAX TEMP:  91;

CLEBURNE       SUNNY     91  77  62 S9        29.83R HX 105
GRANBURY       SUNNY     96  71  43 S7        29.81S HX 104
6HR MIN TEMP:  76; 6HR MAX TEMP:  97;

$$

TXZ083>090-098>101-113>116-127>130-139>142-154-155-231900-
WESTERN NORTH TEXAS

CITY           SKY/WX    TMP DP  RH WIND       PRES   REMARKS
WICHITA FALLS  MOSUNNY   96  67  38 NE9       29.82S HX 100
6HR MIN TEMP:  71; 6HR MAX TEMP:  96;

WF-KICKAPOO    SUNNY     96  69  42 NE8       29.85R HX 101
6HR MIN TEMP:  72; 6HR MAX TEMP:  96;

VERNON         SUNNY     98  56  25 NE8       29.85S HX  96
6HR MIN TEMP:  75; 6HR MAX TEMP:  98;

ABILENE        SUNNY     98  61  29 S5        29.83R HX  98
6HR MIN TEMP:  73; 6HR MAX TEMP:  99;

ABILENE-DYESS  PTSUNNY  100  65  31 CALM      29.81S HX 102
6HR MIN TEMP:  72; 6HR MAX TEMP: 100; 6HR PCP: TRACE;

GRAHAM         SUNNY    100  68  35 CALM      29.80S HX 105
6HR MIN TEMP:  73; 6HR MAX TEMP: 100;

BRECKENRIDGE   SUNNY     99  61  27 CALM      29.81R HX 100
6HR MIN TEMP:  75; 6HR MAX TEMP:  99;

CISCO          SUNNY     95  70  43 VRB3      29.84R HX 101
EASTLAND       SUNNY     95  71  45 SE7       29.83R HX 101
6HR MIN TEMP:  69; 6HR MAX TEMP:  95;

MINERAL WELLS  SUNNY     95  73  48 VRB5      29.80R HX 104
6HR MIN TEMP:  72; 6HR MAX TEMP:  95;

STEPHENVILLE   SUNNY     92  71  49 S5        29.85S HX  99
6HR MIN TEMP:  73; 6HR MAX TEMP:  92;

COMANCHE       SUNNY     96  68  39 CALM      29.83S HX 101
6HR MIN TEMP:  69; 6HR MAX TEMP:  97;

BROWNWOOD      LGT RAIN  95  68  41 CALM      29.82S HX  99
COLEMAN        SUNNY     98  62  30 S6        29.83S HX  99
6HR MIN TEMP:  70; 6HR MAX TEMP:  98;

$$

TXZ143>147-156>162-174-175-231900-
CENTRAL TEXAS

CITY           SKY/WX    TMP DP  RH WIND       PRES   REMARKS
WACO           SUNNY     95  73  48 S13       29.80S HX 104
6HR MIN TEMP:  78; 6HR MAX TEMP:  95;

WACO-TSTC      SUNNY     93  73  52 S7G17     29.81S HX 102
WACO-MCGREGOR  SUNNY     97  74  47 S10       29.81S HX 108
6HR MIN TEMP:  76; 6HR MAX TEMP:  98;

HILLSBORO      SUNNY     91  75  59 S7        29.82F HX 101
6HR MIN TEMP:  76; 6HR MAX TEMP:  91;

CORSICANA      SUNNY     93  76  57 S12       29.83S HX 105
6HR MIN TEMP:  78; 6HR MAX TEMP:  93;

MEXIA          SUNNY     92  74  55 SW10G22   29.82S HX 102
6HR MIN TEMP:  74; 6HR MAX TEMP:  93;

HEARNE         SUNNY     92  76  59 S8        29.84R HX 104
6HR MIN TEMP:  76; 6HR MAX TEMP:  92;

CAMERON        SUNNY     95  74  50 S9        29.81S HX 105
6HR MIN TEMP:  77; 6HR MAX TEMP:  96;

TEMPLE         SUNNY     96  74  48 SE14G22   29.81S HX 107
6HR MIN TEMP:  76; 6HR MAX TEMP:  96;

KILLEEN        MOSUNNY   95  69  43 S14G20    29.81S HX 100
6HR MIN TEMP:  75; 6HR MAX TEMP:  95;

KILLEEN-SKYLRK SUNNY     94  73  50 S14G20    29.82S HX 103
6HR MIN TEMP:  76; 6HR MAX TEMP:  95;

FORT HOOD      MOSUNNY  N/A N/A N/A S13       29.79S
HAMILTON       SUNNY     96  68  40 S7        29.84S HX 100
6HR MIN TEMP:  73; 6HR MAX TEMP:  96;

LAMPASAS       SUNNY     96  73  46 S5        29.83R HX 105
6HR MIN TEMP:  73; 6HR MAX TEMP:  96;

$$

TXZ095>097-106>112-122>126-135>138-148>153-164>167-231900-
EAST TEXAS

CITY           SKY/WX    TMP DP  RH WIND       PRES   REMARKS
PARIS            N/A     88  79  74 SE8       29.82F HX 103
6HR MIN TEMP:  75; 6HR MAX TEMP:  89;

SULPHUR SPRNGS   N/A     89  75  63 S8        29.83F HX  99
6HR MIN TEMP:  77; 6HR MAX TEMP:  89;

MOUNT PLEASANT CLOUDY    89  73  59 SW6       29.84S HX  97
6HR MIN TEMP:  77; 6HR MAX TEMP:  89;

GILMER         CLOUDY    87  74  66 S5        29.84S HX  95
6HR MIN TEMP:  76; 6HR MAX TEMP:  87;

MINEOLA        MOSUNNY   90  73  58 SW5       29.83S HX  98
TYLER          PTSUNNY   89  75  63 S12       29.84S HX  99
6HR MIN TEMP:  78; 6HR MAX TEMP:  90;

LONGVIEW       MOSUNNY   87  77  72 SW8       29.84R HX  99
6HR MIN TEMP:  78; 6HR MAX TEMP:  89;

MARSHALL       MOSUNNY   90  76  64 SW9       29.87S HX 102
6HR MIN TEMP:  75; 6HR MAX TEMP:  90;

ATHENS         MOSUNNY   90  73  58 S9G16     29.82S HX  98
PALESTINE      CLOUDY    90  76  62 S10       29.85S HX 101
JACKSONVILLE   PTSUNNY   87  76  70 S6        29.88S HX  97
HENDERSON      CLOUDY    86  75  69 SW7       29.86F HX  95
6HR MIN TEMP:  76; 6HR MAX TEMP:  88;

CENTER         CLOUDY    90  79  70 SW7       29.88S HX 106
6HR MIN TEMP:  82; 6HR MAX TEMP:  91;

NACOGDOCHES    PTSUNNY   88  75  66 MISG      29.85R HX  97
6HR MIN TEMP:  79; 6HR MAX TEMP:  88;

LUFKIN         PTSUNNY   87  76  69 S10       29.86S HX  97
6HR MIN TEMP:  77; 6HR MAX TEMP:  88;

$$

SUPPLEMENTAL OBSERVATIONS (NWS FORT WORTH AREA)

CITY           SKY/WX    TMP DP  RH WIND       PRES   REMARKS
DENISON DAM      N/A     91  75  59 N5          N/A  HX 102
CADDO GRASSLND   N/A     91  75  59 W2          N/A  HX 102
PAT MAYSE LAKE   N/A     90  81  74 S3          N/A  HX 108
GREENVILLE       N/A     91  75  59 S7          N/A  HX 102


USA.gov is the U.S. government's official web portal to all federal, state and local government web resources and services.